GW0614 Weather Reports


Display with metric or nautical units.
time (UTC)temp
F
wind
direction
speed
MPH
gust
MPH
rain 1hr
in
rain 24hr
in
rain mn
in
humidity
%
barometer
mb
20260507144528 53 348 0.0 0.0 0.00 0.00 0.00 54 1014.4
20260507144026 53 333 3.0 3.0 0.00 0.00 0.00 57 1014.8
20260507143523 53 82 2.0 2.0 0.00 0.00 0.00 59 1014.5
20260507143021 52 345 3.0 3.0 0.00 0.00 0.00 61 1014.5
20260507142515 52 317 1.0 3.0 0.00 0.00 0.00 55 1014.5
20260507142013 53 336 2.0 3.0 0.00 0.00 0.00 55 1014.6
20260507141509 52 351 2.0 3.0 0.00 0.00 0.00 57 1014.7
20260507141007 52 282 2.0 2.0 0.00 0.00 0.00 60 1014.9
20260507140502 53 325 4.0 5.0 0.00 0.00 0.00 57 1014.7
20260507140000 52 350 0.0 0.0 0.00 0.00 0.00 57 1014.7
20260507135457 51 353 1.0 2.0 0.00 0.00 0.00 55 1014.7
20260507134954 52 76 2.0 2.0 0.00 0.00 0.00 60 1014.8
20260507134450 51 68 4.0 6.0 0.00 0.00 0.00 56 1014.5
20260507133946 50 13 2.0 3.0 0.00 0.00 0.00 58 1014.7
20260507133442 50 337 3.0 3.0 0.00 0.00 0.00 57 1014.7
20260507132941 51 11 2.0 3.0 0.00 0.00 0.00 59 1014.6
20260507132437 50 346 1.0 1.0 0.00 0.00 0.00 58 1014.7
20260507131933 50 9 1.0 2.0 0.00 0.00 0.00 57 1014.6
20260507131430 50 328 3.0 3.0 0.00 0.00 0.00 56 1014.6
20260507130927 49 20 0.0 0.0 0.00 0.00 0.00 63 1014.8
20260507130424 48 345 3.0 3.0 0.00 0.00 0.00 62 1014.7
20260507125923 48 292 4.0 7.0 0.00 0.00 0.00 65 1014.6
20260507125421 48 48 1.0 2.0 0.00 0.00 0.00 63 1014.7
20260507124918 48 340 3.0 3.0 0.00 0.00 0.00 62 1014.6
20260507124413 47 4 3.0 5.0 0.00 0.00 0.00 68 1014.8
20260507123913 47 77 0.0 0.0 0.00 0.00 0.00 74 1014.5
20260507123409 46 330 2.0 2.0 0.00 0.00 0.00 71 1014.5
20260507122906 45 342 0.0 1.0 0.00 0.00 0.00 76 1014.7
20260507122401 44 319 2.0 3.0 0.00 0.00 0.00 80 1014.7
20260507121858 44 24 1.0 2.0 0.00 0.00 0.00 78 1014.6
20260507121353 43 16 3.0 5.0 0.00 0.00 0.00 76 1014.6
20260507120850 43 2 2.0 3.0 0.00 0.00 0.00 79 1014.6
20260507120346 42 345 2.0 2.0 0.00 0.00 0.00 81 1014.6
20260507115842 42 1 1.0 2.0 0.00 0.00 0.00 82 1014.6
20260507115338 42 24 1.0 1.0 0.00 0.00 0.00 86 1014.8
20260507114834 42 346 0.0 1.0 0.00 0.00 0.00 89 1014.4
20260507114331 41 15 0.0 0.0 0.00 0.00 0.00 87 1014.8
20260507113829 41 7 2.0 3.0 0.00 0.00 0.00 92 1014.6
20260507113325 41 34 0.0 0.0 0.00 0.00 0.00 91 1014.6
20260507112823 42 7 1.0 2.0 0.00 0.00 0.00 89 1014.5
20260507112320 42 10 0.0 0.0 0.00 0.00 0.00 89 1014.6
20260507111818 41 320 3.0 3.0 0.00 0.00 0.00 91 1014.5
20260507111314 41 337 3.0 5.0 0.00 0.00 0.00 90 1014.4
20260507110810 40 9 1.0 1.0 0.00 0.00 0.00 99 1014.4
20260507110307 40 307 2.0 3.0 0.00 0.00 0.00 99 1014.4
20260507105804 40 5 0.0 0.0 0.00 0.00 0.00 99 1014.6
20260507105300 39 7 0.0 0.0 0.00 0.00 0.00 99 1014.2
20260507104757 39 358 0.0 0.0 0.00 0.00 0.00 99 1014.3
20260507104254 39 8 0.0 0.0 0.00 0.00 0.00 99 1014.0
20260507103750 40 46 0.0 0.0 0.00 0.00 0.00 99 1014.0
20260507103246 40 46 0.0 0.0 0.00 0.00 0.00 99 1014.3
20260507102743 40 46 0.0 0.0 0.00 0.00 0.00 99 1013.9
20260507102239 40 46 0.0 0.0 0.00 0.00 0.00 99 1013.9
20260507101735 40 46 0.0 0.0 0.00 0.00 0.00 99 1013.8
20260507101230 41 46 0.0 0.0 0.00 0.00 0.00 99 1013.7
20260507100722 41 46 0.0 0.0 0.00 0.00 0.00 99 1013.5
20260507100221 41 45 0.0 0.0 0.00 0.00 0.00 99 1013.5
20260507095718 41 46 0.0 0.0 0.00 0.00 0.00 99 1013.8
20260507095214 42 46 0.0 0.0 0.00 0.00 0.00 99 1013.4
20260507094711 42 45 0.0 0.0 0.00 0.00 0.00 99 1013.3
20260507094208 42 36 0.0 0.0 0.00 0.00 0.00 99 1013.4
20260507093705 42 37 0.0 0.0 0.00 0.00 0.00 99 1013.2
20260507093204 43 36 0.0 0.0 0.00 0.00 0.00 99 1013.5
20260507092700 43 10 0.0 0.0 0.00 0.00 0.00 99 1013.8
20260507092157 44 11 0.0 0.0 0.00 0.00 0.00 99 1013.3
20260507091653 44 11 0.0 1.0 0.00 0.00 0.00 99 1013.4
20260507091150 44 348 0.0 0.0 0.00 0.00 0.00 99 1013.5
20260507090645 44 348 0.0 0.0 0.00 0.00 0.00 99 1013.3
20260507090143 44 348 0.0 0.0 0.00 0.00 0.00 99 1013.1
20260507085640 44 348 0.0 0.0 0.00 0.00 0.00 99 1013.5
20260507085136 44 348 0.0 0.0 0.00 0.00 0.00 99 1013.5
20260507084633 44 348 0.0 0.0 0.00 0.00 0.00 99 1013.5
20260507084130 44 348 0.0 0.0 0.00 0.00 0.00 99 1013.5
20260507083627 45 348 0.0 0.0 0.00 0.00 0.00 99 1013.6
20260507083124 45 348 0.0 0.0 0.00 0.00 0.00 99 1013.8
20260507082619 45 340 0.0 0.0 0.00 0.00 0.00 99 1013.8
20260507082116 45 344 0.0 0.0 0.00 0.00 0.00 99 1013.7
20260507081613 45 344 0.0 0.0 0.00 0.00 0.00 99 1013.8
20260507081109 45 2 0.0 0.0 0.00 0.00 0.00 99 1013.6
20260507080606 45 2 0.0 0.0 0.00 0.00 0.00 99 1013.7
20260507075557 45 2 0.0 0.0 0.00 0.00 0.00 99 1013.9
20260507075054 45 2 0.0 0.0 0.00 0.00 0.00 99 1013.9
20260507074551 44 2 0.0 0.0 0.00 0.00 0.00 99 1013.8
20260507074049 44 2 0.0 0.0 0.00 0.00 0.00 99 1013.6
20260507073544 44 2 0.0 0.0 0.00 0.00 0.00 99 1013.6
20260507073041 45 2 0.0 0.0 0.00 0.00 0.00 99 1013.6
20260507072539 45 2 0.0 0.0 0.00 0.00 0.00 99 1013.2
20260507072036 45 2 0.0 0.0 0.00 0.00 0.00 99 1013.2
20260507071533 45 2 0.0 0.0 0.00 0.00 0.00 99 1013.0
20260507071030 45 2 0.0 0.0 0.00 0.00 0.00 99 1012.6
20260507070527 45 2 0.0 0.0 0.00 0.00 0.00 99 1012.8
20260507070024 45 2 0.0 0.0 0.00 0.00 0.00 99 1012.7
20260507065520 45 7 0.0 0.0 0.00 0.00 0.00 99 1012.8
20260507065018 45 7 0.0 0.0 0.00 0.00 0.00 99 1012.9
20260507064515 45 7 0.0 0.0 0.00 0.00 0.00 99 1012.6
20260507064014 45 8 0.0 0.0 0.00 0.00 0.00 99 1012.5
20260507063510 45 8 0.0 0.0 0.00 0.00 0.00 99 1012.8
20260507063008 46 8 0.0 0.0 0.00 0.00 0.00 99 1012.8
20260507062504 46 8 0.0 0.0 0.00 0.00 0.00 99 1012.7
20260507062002 46 13 0.0 0.0 0.00 0.00 0.00 99 1012.6
20260507061459 46 13 0.0 0.0 0.00 0.00 0.00 99 1012.5
20260507060957 46 13 0.0 0.0 0.00 0.00 0.00 99 1012.8
20260507060454 46 13 0.0 0.0 0.00 0.00 0.00 99 1012.7
20260507055951 46 13 0.0 0.0 0.00 0.00 0.00 99 1013.0
20260507055446 46 13 0.0 0.0 0.00 0.00 0.00 99 1012.7
20260507054943 46 13 0.0 0.0 0.00 0.00 0.00 99 1012.7
20260507054439 46 13 0.0 0.0 0.00 0.00 0.00 99 1012.6
20260507053936 46 13 0.0 0.0 0.00 0.00 0.00 99 1012.7
20260507053434 46 13 0.0 0.0 0.00 0.00 0.00 99 1012.5
20260507052932 46 13 0.0 0.0 0.00 0.00 0.00 99 1012.8
20260507052429 46 24 0.0 0.0 0.00 0.00 0.00 99 1012.7
20260507051926 46 24 0.0 0.0 0.00 0.00 0.00 99 1012.7
20260507051424 46 24 0.0 0.0 0.00 0.00 0.00 99 1013.1
20260507050921 46 24 0.0 0.0 0.00 0.00 0.00 99 1013.2
20260507050417 46 24 0.0 0.0 0.00 0.00 0.00 99 1013.1
20260507045914 46 24 0.0 0.0 0.00 0.00 0.00 99 1013.0
20260507045411 47 24 0.0 0.0 0.00 0.00 0.00 99 1013.1
20260507044908 47 24 0.0 0.0 0.00 0.00 0.00 99 1012.9
20260507044405 47 24 0.0 0.0 0.00 0.00 0.00 99 1013.3
20260507043901 47 24 0.0 0.0 0.00 0.00 0.00 99 1013.1
20260507043357 47 25 0.0 0.0 0.00 0.00 0.00 99 1013.1
20260507042853 47 25 0.0 0.0 0.00 0.00 0.00 99 1013.3
20260507042350 47 24 0.0 0.0 0.00 0.00 0.00 99 1013.5
20260507041846 47 24 0.0 0.0 0.00 0.00 0.00 99 1013.4
20260507041343 47 24 0.0 0.0 0.00 0.00 0.00 99 1013.4
20260507040840 47 24 0.0 0.0 0.00 0.00 0.00 99 1013.3
20260507040336 47 25 0.0 0.0 0.00 0.00 0.00 99 1013.1
20260507035827 47 25 0.0 0.0 0.00 0.60 0.60 99 1013.0
20260507035322 47 25 0.0 0.0 0.00 0.60 0.60 99 1012.9
20260507034820 47 24 0.0 0.0 0.00 0.60 0.60 99 1012.9
20260507034317 47 2 0.0 0.0 0.00 0.60 0.60 99 1013.1
20260507033815 47 12 0.0 0.0 0.00 0.60 0.60 99 1012.7
20260507033312 47 11 0.0 0.0 0.00 0.60 0.60 99 1012.9
20260507032809 48 12 0.0 0.0 0.00 0.60 0.60 99 1013.2
20260507032306 48 13 0.0 0.0 0.00 0.60 0.60 99 1013.1
20260507031802 48 13 0.0 0.0 0.00 0.60 0.60 99 1013.2
20260507031259 48 1 0.0 0.0 0.00 0.60 0.60 99 1013.0
20260507030755 48 356 0.0 0.0 0.00 0.60 0.60 99 1013.0
20260507030253 48 352 0.0 0.0 0.00 0.60 0.60 99 1013.2
20260507025750 48 352 0.0 0.0 0.00 0.60 0.60 99 1013.3
20260507025247 48 352 0.0 0.0 0.00 0.60 0.60 99 1013.4
20260507024745 48 352 0.0 0.0 0.00 0.60 0.60 99 1013.4
20260507024242 48 352 0.0 0.0 0.00 0.60 0.60 99 1013.5
20260507023737 48 352 0.0 0.0 0.00 0.60 0.60 99 1013.6
20260507023235 48 352 0.0 0.0 0.00 0.60 0.60 99 1013.4
20260507022732 48 352 0.0 0.0 0.00 0.60 0.60 99 1013.6
20260507022228 48 352 0.0 0.0 0.00 0.60 0.60 99 1013.3
20260507021724 48 352 0.0 0.0 0.00 0.60 0.60 99 1013.5
20260507021220 48 352 0.0 0.0 0.00 0.60 0.60 99 1013.6
20260507020719 48 352 1.0 1.0 0.00 0.60 0.60 99 1013.4
20260507020214 48 340 0.0 0.0 0.00 0.60 0.60 99 1013.5
20260507015712 48 350 0.0 0.0 0.07 0.60 0.60 99 1013.3
20260507015209 48 353 0.0 0.0 0.07 0.60 0.60 99 1013.1
20260507014706 48 334 0.0 0.0 0.00 0.59 0.59 99 1013.2
20260507014202 48 334 0.0 0.0 0.00 0.59 0.59 99 1013.1
20260507013659 48 338 0.0 0.0 0.00 0.59 0.59 99 1013.3
20260507013156 48 338 0.0 0.0 0.00 0.59 0.59 99 1013.3
20260507012654 48 338 0.0 0.0 0.00 0.59 0.59 99 1013.2
20260507012149 48 338 1.0 1.0 0.05 0.59 0.59 99 1012.9
20260507011647 48 338 1.0 1.0 0.05 0.59 0.59 99 1012.9
20260507011143 48 340 0.0 0.0 0.07 0.58 0.58 99 1012.8
20260507010638 48 338 0.0 0.0 0.07 0.58 0.58 99 1013.0
20260507010134 48 340 0.0 0.0 0.00 0.57 0.57 99 1012.7
20260507005632 48 341 1.0 2.0 0.05 0.57 0.57 99 1012.8
20260507005127 49 341 0.0 0.0 0.05 0.57 0.57 99 1012.9
20260507004625 49 341 0.0 0.0 0.07 0.56 0.56 99 1012.7
20260507004122 49 356 0.0 0.0 0.07 0.56 0.56 99 1012.5
20260507003618 49 9 0.0 0.0 0.07 0.55 0.55 99 1012.5
20260507003113 49 9 0.0 0.0 0.07 0.55 0.55 99 1012.7
20260507002610 49 17 0.0 0.0 0.00 0.54 0.54 99 1012.4
20260507002105 49 8 1.0 1.0 0.00 0.54 0.54 99 1012.4
20260507001603 49 2 0.0 0.0 0.05 0.54 0.54 99 1012.6
20260507001100 49 356 1.0 1.0 0.05 0.54 0.54 99 1012.3
20260507000556 49 7 1.0 1.0 0.00 0.53 0.53 99 1012.1
20260507000052 49 45 0.0 0.0 0.00 0.53 0.53 99 1012.1
20260506235549 49 332 1.0 2.0 0.00 0.53 0.53 99 1011.7
20260506235044 49 346 0.0 0.0 0.00 0.53 0.53 99 1011.8
20260506234542 50 1 1.0 2.0 0.07 0.53 0.53 99 1011.8
20260506234039 50 304 3.0 3.0 0.31 0.53 0.53 99 1011.6
20260506233536 50 344 1.0 1.0 0.52 0.52 0.52 99 1011.6
20260506233033 51 30 0.0 0.0 0.42 0.48 0.48 99 1011.3
20260506232529 51 1 0.0 0.0 0.42 0.43 0.43 99 1011.5
20260506232024 51 353 1.0 2.0 0.40 0.41 0.41 99 1011.2
20260506231522 52 344 0.0 0.0 0.31 0.36 0.36 99 1011.0
20260506231020 52 48 2.0 2.0 0.26 0.34 0.34 99 1010.9
20260506230516 53 36 1.0 1.0 0.24 0.31 0.31 99 1010.7
20260506230014 53 348 0.0 0.0 0.28 0.30 0.30 99 1010.6
20260506225511 53 352 1.0 1.0 0.19 0.27 0.27 99 1010.6
20260506225007 53 335 1.0 1.0 0.19 0.25 0.25 99 1010.5
20260506224504 54 102 1.0 1.0 0.35 0.24 0.24 99 1010.0
20260506224001 55 353 2.0 2.0 0.31 0.21 0.21 98 1009.8
20260506223456 57 345 2.0 3.0 0.05 0.17 0.17 95 1009.3
20260506222953 61 329 2.0 3.0 0.00 0.16 0.16 96 1009.4
20260506222450 61 59 0.0 0.0 0.00 0.16 0.16 98 1008.6
20260506221947 61 59 0.0 0.0 0.00 0.16 0.16 98 1008.6
20260506221444 61 60 0.0 0.0 0.00 0.16 0.16 98 1008.6
20260506220942 61 87 1.0 1.0 0.00 0.16 0.16 98 1008.7
20260506220437 61 81 0.0 0.0 0.00 0.16 0.16 98 1008.5
20260506215934 61 30 0.0 0.0 0.00 0.16 0.16 98 1008.4
20260506215430 61 42 1.0 1.0 0.00 0.16 0.16 98 1008.3
20260506214926 61 44 0.0 0.0 0.00 0.16 0.16 98 1008.5
20260506214423 61 75 1.0 1.0 0.00 0.16 0.16 98 1008.3
20260506213921 61 74 0.0 0.0 0.00 0.16 0.16 98 1008.4
20260506213418 61 118 2.0 2.0 0.00 0.16 0.16 98 1008.5
20260506212915 61 65 0.0 0.0 0.00 0.16 0.16 98 1008.6
20260506212411 61 46 0.0 0.0 0.00 0.16 0.16 98 1008.6
20260506211906 61 57 0.0 0.0 0.00 0.16 0.16 98 1008.5
20260506211403 61 225 2.0 2.0 0.00 0.16 0.16 98 1008.4
20260506210900 61 61 2.0 3.0 0.00 0.16 0.16 98 1008.3
20260506210356 61 231 1.0 3.0 0.00 0.16 0.16 97 1008.4
20260506205854 61 334 2.0 2.0 0.00 0.16 0.16 97 1008.1
20260506205349 61 56 4.0 6.0 0.00 0.16 0.16 97 1008.3
20260506204846 61 1 1.0 1.0 0.00 0.16 0.16 97 1008.4
20260506204344 61 59 0.0 0.0 0.00 0.16 0.16 97 1008.4
20260506203841 62 43 1.0 1.0 0.00 0.16 0.16 97 1008.3
20260506203338 62 29 0.0 1.0 0.00 0.16 0.16 97 1008.2
20260506202835 62 124 2.0 2.0 0.00 0.16 0.16 96 1008.4
20260506202332 62 45 1.0 1.0 0.00 0.16 0.16 95 1008.1
20260506201829 62 89 1.0 2.0 0.00 0.16 0.16 96 1008.3
20260506201326 62 76 0.0 1.0 0.00 0.16 0.16 97 1008.2
20260506200823 62 71 2.0 2.0 0.00 0.16 0.16 95 1008.7
20260506200319 62 88 1.0 1.0 0.00 0.16 0.16 97 1008.5
20260506195815 62 193 3.0 5.0 0.00 0.16 0.16 96 1008.5
20260506195312 61 144 1.0 1.0 0.00 0.16 0.16 98 1008.5
20260506194809 61 205 4.0 6.0 0.00 0.16 0.16 97 1008.7
20260506194306 61 43 1.0 1.0 0.00 0.16 0.16 98 1008.7
20260506193804 61 43 1.0 2.0 0.00 0.16 0.16 97 1008.9
20260506193300 61 119 1.0 2.0 0.00 0.16 0.16 97 1008.8
20260506192756 61 134 3.0 3.0 0.00 0.16 0.16 98 1008.9
20260506192253 61 37 1.0 1.0 0.00 0.16 0.16 98 1008.9
20260506191750 61 79 1.0 1.0 0.00 0.16 0.16 98 1009.0
20260506191247 61 84 1.0 2.0 0.00 0.16 0.16 98 1008.9
20260506190744 61 65 1.0 2.0 0.00 0.16 0.16 98 1008.8
20260506190240 61 22 2.0 2.0 0.00 0.16 0.16 98 1009.1
20260506185737 61 61 1.0 1.0 0.00 0.16 0.16 99 1009.0
20260506185234 61 39 2.0 2.0 0.00 0.16 0.16 97 1009.0
20260506184731 62 78 1.0 2.0 0.00 0.16 0.16 98 1009.0
20260506184228 61 158 1.0 2.0 0.00 0.16 0.16 98 1009.2
20260506183725 61 175 2.0 2.0 0.00 0.16 0.16 99 1009.1
20260506183221 61 117 2.0 2.0 0.00 0.16 0.16 99 1009.1
20260506182718 61 55 0.0 0.0 0.07 0.16 0.16 99 1009.2
20260506182215 61 15 1.0 1.0 0.07 0.16 0.16 99 1009.3
20260506181713 61 66 1.0 1.0 0.00 0.15 0.15 99 1009.4
20260506181210 61 40 0.0 0.0 0.00 0.15 0.15 99 1009.4
20260506180707 61 209 2.0 3.0 0.00 0.15 0.15 99 1009.4
20260506180203 61 7 1.0 1.0 0.05 0.15 0.15 99 1009.4
20260506175659 61 25 0.0 0.0 0.05 0.15 0.15 99 1009.5
20260506175156 61 74 1.0 1.0 0.00 0.14 0.14 99 1009.6
20260506174649 61 75 0.0 0.0 0.00 0.14 0.14 99 1009.5
20260506174145 62 74 1.0 2.0 0.07 0.14 0.14 98 1009.3
20260506173643 61 53 1.0 1.0 0.07 0.14 0.14 98 1009.6
20260506173140 61 72 1.0 1.0 0.00 0.13 0.13 98 1009.3
20260506172637 61 57 0.0 1.0 0.00 0.13 0.13 99 1009.5
20260506172133 61 87 1.0 1.0 0.00 0.13 0.13 99 1009.5
20260506171631 62 180 1.0 2.0 0.00 0.13 0.13 99 1009.6
20260506171128 61 192 0.0 2.0 0.05 0.13 0.13 99 1009.4
20260506170620 62 72 1.0 1.0 0.05 0.13 0.13 99 1009.7
20260506170117 61 61 0.0 1.0 0.07 0.12 0.12 99 1009.7
20260506165615 61 57 0.0 0.0 0.12 0.12 0.12 99 1010.0
20260506165111 61 29 0.0 0.0 0.12 0.11 0.11 99 1010.2
20260506164608 61 157 1.0 2.0 0.12 0.10 0.10 99 1010.2
20260506164106 61 50 0.0 0.0 0.05 0.09 0.09 99 1010.2
20260506163601 61 32 0.0 0.0 0.07 0.08 0.08 99 1010.4
20260506163057 61 54 0.0 0.0 0.05 0.07 0.07 99 1010.5
20260506162554 61 76 1.0 1.0 0.05 0.07 0.07 99 1010.4
20260506162051 61 48 0.0 0.0 0.07 0.06 0.06 99 1010.6
20260506161549 61 54 1.0 2.0 0.07 0.06 0.06 99 1010.6
20260506161045 61 43 1.0 2.0 0.07 0.05 0.05 98 1010.7
20260506160543 61 88 0.0 0.0 0.12 0.05 0.05 98 1011.0
20260506160040 62 42 0.0 1.0 0.05 0.04 0.04 97 1011.1
20260506155539 62 36 0.0 0.0 0.07 0.03 0.03 97 1010.9
20260506153715 63 63 1.0 2.0 0.00 0.01 0.01 95 1010.7
20260506153213 63 66 0.0 0.0 0.00 0.01 0.01 93 1010.7
20260506152709 63 72 0.0 0.0 0.07 0.01 0.01 94 1010.7
20260506152207 63 114 2.0 3.0 0.07 0.01 0.01 92 1010.7
20260506151706 64 63 0.0 0.0 0.00 0.00 0.00 92 1010.9
20260506151202 64 1 0.0 1.0 0.00 0.00 0.00 90 1010.9
20260506150658 64 58 1.0 1.0 0.00 0.00 0.00 91 1011.0
20260506150155 64 52 0.0 0.0 0.00 0.00 0.00 90 1011.0
20260506145652 64 324 0.0 0.0 0.00 0.00 0.00 87 1011.1
20260506145149 64 71 0.0 0.0 0.00 0.00 0.00 87 1011.1
20260506144647 64 21 2.0 2.0 0.00 0.00 0.00 86 1011.0